Dewpoint
65 67 68 67 67 68 68 69 69 69 62 61 64 60 59 61 65 68 70 70 71 71 72 73 72 73 72 73 73 73 73 72 74 73 74 73 73 73 73 75 74 74 74 75 74 74 74 74 73 74 75 75 76 76 77 78 78 78 78 78 77 79 77
67 67 67 68 68 68 68 70 71 69 69 62 65 62 59 61 66 68 70 70 71 71 71 73 73 73 73 72 73 73 73 73 74 74 73 74 75 74 73 74 73 74 73 74 74 75 73 75 74 74 75 76 76 77 77 77 78 77 77 77 77 77 77
65 66 65 66 67 69 70 69 70 70 70 70 69 65 65 66 66 68 70 70 70 71 71 72 73 73 74 73 73 73 73 73 73 74 72 72 73 73 73 73 74 73 74 73 73 74 74 75 73 74 75 74 75 76 77 77 77 77 77 77 76 77 77
65 64 67 67 68 70 70 70 70 71 71 72 71 70 69 70 71 69 70 70 70 71 71 72 73 73 74 73 72 73 73 72 73 73 72 72 72 71 72 73 73 73 73 73 73 71 72 72 74 74 77 74 75 76 76 76 77 77 77 77 76 76 76
63 65 66 67 67 67 69 68 69 70 70 72 73 73 71 72 72 72 73 71 71 71 71 72 72 73 74 74 72 72 72 72 72 72 72 71 71 70 70 71 71 71 71 71 71 70 72 71 73 75 74 73 74 75 75 75 75 76 76 77 76 76 76
63 65 66 66 67 67 68 70 69 71 72 71 71 72 72 72 71 72 72 74 73 73 72 72 73 73 73 73 72 72 72 73 73 72 72 71 70 69 69 69 70 70 71 70 71 69 72 71 71 73 73 74 73 73 74 75 75 75 76 77 76 76 76
63 64 63 64 65 66 68 68 68 70 72 70 71 74 71 73 70 70 72 73 74 74 73 74 74 75 74 73 73 72 72 72 72 72 72 71 71 69 68 68 70 69 69 70 69 69 73 70 71 72 72 72 72 71 72 73 73 74 75 76 75 75 76
59 60 62 62 62 63 65 69 70 71 72 73 71 73 72 73 72 71 72 72 72 72 73 74 74 73 73 72 72 71 73 71 71 71 71 70 70 70 68 68 69 69 68 69 69 68 69 69 70 71 71 71 71 71 71 72 72 72 74 74 75 74 75
58 60 61 61 62 62 63 68 69 69 70 71 72 73 73 73 73 73 73 73 72 72 73 73 73 74 73 72 72 72 72 73 71 71 70 70 69 69 68 68 68 69 68 68 67 68 67 68 68 71 71 70 71 70 71 72 72 72 74 73 74 74 73
56 58 60 61 63 62 62 65 70 70 70 70 70 72 73 73 73 73 73 74 73 73 73 74 74 74 73 73 72 72 71 70 72 71 70 69 68 67 67 67 67 69 68 67 66 67 68 67 67 69 71 70 70 70 70 72 72 71 72 73 73 73 73
55 57 59 63 63 61 61 62 65 68 68 69 70 70 71 72 72 72 73 74 73 73 73 73 72 73 72 72 72 73 71 70 72 71 70 68 67 66 66 65 65 67 67 67 65 65 67 68 67 66 71 70 69 71 69 71 71 70 70 72 73 73 73
55 56 58 61 63 59 60 60 61 65 67 68 69 69 69 70 70 72 72 73 72 71 72 73 72 72 73 73 74 73 72 71 71 71 72 72 69 66 65 64 64 65 66 66 65 65 64 67 67 66 68 70 69 70 70 70 71 70 69 68 71 73 72
54 55 56 58 61 59 59 59 60 61 62 66 68 68 70 71 71 71 71 72 74 74 74 75 74 73 72 71 73 73 72 73 71 72 72 72 71 70 67 63 63 63 65 66 65 64 63 64 67 68 67 69 69 69 71 70 70 71 70 69 68 70 72
56 54 54 55 57 57 58 59 59 59 59 60 61 64 67 69 71 72 72 72 73 74 73 73 75 74 74 73 73 73 74 75 75 74 73 72 72 71 71 69 69 64 63 66 65 64 63 63 64 67 68 68 68 68 69 71 70 71 72 71 69 69 69
52 52 53 54 56 57 58 58 58 58 58 59 61 61 62 66 68 71 72 72 73 74 74 74 73 73 74 74 74 74 74 73 74 74 74 74 73 72 72 72 73 72 69 66 66 65 64 63 63 64 67 69 69 68 68 69 70 70 71 72 71 70 69
51 51 52 53 54 55 56 57 59 59 59 59 59 60 61 62 63 65 69 70 72 71 72 73 74 74 73 73 73 73 74 73 73 74 74 73 73 73 73 73 74 73 73 72 71 67 66 64 62 63 64 66 68 68 68 68 69 71 69 70 71 70 69
50 51 52 53 55 55 56 57 58 59 58 58 58 59 60 60 61 62 63 64 67 69 72 73 72 72 72 73 74 74 74 75 74 73 73 73 74 74 74 73 73 74 73 72 72 71 71 69 64 60 63 64 66 67 67 67 67 68 65 65 68 71 70
50 52 53 54 55 55 55 56 57 58 59 60 59 59 60 60 60 61 63 64 65 64 67 69 70 71 71 72 72 73 73 74 74 74 75 75 75 73 73 73 72 73 72 72 72 72 72 70 70 69 64 62 64 66 67 67 68 64 63 64 64 68 70
50 50 52 53 54 55 55 55 56 57 58 57 58 60 61 61 60 61 62 63 65 65 65 65 66 68 70 70 70 70 72 73 73 73 73 74 74 73 73 74 73 73 73 73 73 72 71 70 69 69 70 67 63 63 65 66 65 62 62 63 63 63 68
51 51 52 51 51 52 53 55 56 56 58 58 57 57 59 62 60 60 61 62 63 66 65 65 65 65 66 68 69 69 70 71 71 72 73 74 73 74 74 73 73 72 73 74 74 73 71 70 69 69 69 69 69 65 64 65 65 61 60 60 61 62 64
50 52 53 52 52 52 53 54 55 55 56 58 57 57 59 59 60 61 61 61 62 64 64 63 64 65 65 65 66 69 70 70 70 71 72 73 73 73 73 73 73 73 73 73 73 72 72 71 70 69 70 69 69 69 66 64 63 59 58 58 58 60 63
47 48 51 53 53 53 53 54 55 57 56 57 54 54 56 60 60 61 61 61 62 63 63 63 63 63 64 64 65 66 68 70 70 70 71 73 72 72 72 72 73 73 73 74 73 73 73 72 72 71 70 70 70 70 70 69 64 61 57 56 56 59 64
43 43 46 52 52 51 51 51 52 55 60 55 52 53 54 56 62 61 61 60 62 62 62 62 62 63 64 64 63 65 65 70 69 70 70 71 71 71 71 71 72 73 73 72 72 73 72 72 71 71 71 71 72 72 71 71 67 63 60 55 55 57 62
40 39 40 43 48 50 51 51 50 49 57 55 53 52 54 57 59 61 60 60 61 62 61 61 61 62 64 63 63 63 63 65 71 70 70 70 71 71 72 72 72 73 74 74 73 73 73 72 72 72 72 71 72 73 72 71 69 60 58 59 56 59 61
40 40 41 44 45 45 48 53 54 52 52 51 50 50 51 57 59 60 59 60 60 62 62 61 62 62 62 63 63 63 64 64 66 68 69 70 70 71 71 72 72 72 73 74 74 73 73 73 72 72 71 71 71 74 73 72 70 63 63 63 61 60 63
42 41 41 43 44 47 52 54 50 48 48 49 50 51 51 53 55 59 59 59 60 59 61 62 62 62 62 62 62 62 63 63 65 66 65 68 70 71 71 73 73 72 72 73 74 74 74 73 73 73 72 72 72 71 74 73 72 71 61 61 60 58 66
41 41 40 41 47 55 48 48 49 49 48 51 52 50 51 53 55 57 59 58 58 57 57 62 63 63 63 62 62 62 62 62 63 63 63 64 68 70 71 72 72 72 72 72 73 74 73 73 73 72 72 72 72 72 74 73 73 72 62 58 58 57 61
42 40 40 50 54 51 48 48 49 48 48 48 49 51 52 53 56 56 57 55 57 56 55 62 61 62 62 62 62 62 61 61 63 63 63 63 65 66 69 70 71 71 71 72 73 72 73 73 73 72 72 72 73 73 75 76 75 73 64 58 56 55 54
44 43 43 44 45 48 48 49 49 47 46 47 50 52 52 53 55 57 57 55 57 57 58 62 63 61 60 62 63 62 61 61 61 61 62 63 64 66 68 69 70 70 71 72 72 72 72 72 73 73 73 72 73 74 73 75 75 71 72 62 56 55 52
46 46 44 43 46 48 50 48 48 48 48 50 53 53 54 54 55 56 57 56 56 57 58 58 57 58 61 63 62 61 62 62 61 60 61 62 65 64 62 64 67 70 70 70 71 71 71 71 71 71 71 71 71 72 72 72 74 72 70 70 62 56 54
46 46 46 47 48 52 48 46 49 50 50 51 52 53 54 54 54 55 55 55 56 57 56 57 58 60 62 60 60 60 60 61 60 59 59 62 61 59 62 64 63 65 68 69 70 69 69 69 70 70 70 70 70 71 71 72 72 72 71 67 64 60 56
47 47 48 49 49 49 50 49 50 50 51 51 51 51 53 53 53 53 54 55 56 54 54 57 58 58 58 59 60 60 59 57 57 58 58 58 58 60 64 60 61 66 70 70 69 69 69 69 69 69 68 68 69 69 70 72 72 73 73 74 72 65 56
49 49 50 50 50 52 52 52 51 52 52 52 52 52 51 50 52 54 55 55 54 53 54 55 57 58 58 58 59 59 58 58 58 58 58 58 59 58 59 59 60 61 64 67 67 66 66 67 66 66 65 66 66 67 68 68 70 70 71 74 74 72 68
49 49 50 49 50 52 50 51 50 50 51 52 52 52 52 52 53 53 54 54 55 55 55 57 57 57 57 57 57 59 58 58 59 58 58 59 58 58 59 59 60 59 60 61 62 63 64 64 63 63 63 63 64 64 64 65 66 68 69 71 71 70 71
50 49 48 49 50 52 51 50 51 51 51 52 52 52 52 52 53 53 53 54 54 55 55 56 58 58 57 56 57 57 61 60 59 58 59 58 58 58 59 59 59 60 60 61 62 63 63 61 61 63 63 64 64 63 62 62 63 65 64 65 57 59 61
48 48 49 50 50 50 49 50 50 50 52 52 52 52 52 52 52 52 52 53 54 55 55 56 56 56 56 57 57 57 58 60 58 59 60 59 59 59 59 62 57 57 60 60 62 60 57 56 60 61 62 63 63 63 62 62 62 59 54 51 51 51 50
48 49 49 48 47 48 49 50 52 52 52 52 53 52 53 53 53 52 53 53 54 55 55 55 55 56 55 56 57 58 58 60 58 59 57 58 59 60 59 58 59 53 53 54 56 53 50 49 49 49 52 59 60 60 57 57 55 52 51 49 47 46 46
49 48 47 48 48 49 50 51 51 51 52 51 52 52 53 53 54 54 54 54 54 55 54 55 55 54 54 54 55 56 60 61 59 59 59 58 58 57 57 57 57 59 54 52 53 52 48 47 46 46 48 49 52 56 58 56 53 50 48 46 46 46 45